AirNav   Air Wisconsin Up To $57,000 Bonus
 
 1154 users online  

72MU Executive Hills Polo Club Heliport
Kansas City, Missouri, USA

GOING TO KANSAS CITY?


FAA INFORMATION EFFECTIVE 26 JANUARY 2023

Location

FAA Identifier: 72MU
Lat/Long: 39-16-50.0050N 094-40-16.8480W
39-16.833417N 094-40.280800W
39.2805569,-94.6713467
(estimated)
Elevation: 1042 ft. / 318 m (estimated)
Variation: 05E (1985)
Time zone: UTC -6 (UTC -5 during Daylight Saving Time)
Zip code: 64153

Heliport Operations

Heliport use: Private use. Permission required prior to landing
Activation date: 06/1987
Control tower: no
ARTCC: KANSAS CITY CENTER
FSS: COLUMBIA FLIGHT SERVICE STATION
Attendance: UNATNDD
Segmented circle: no

Heliport Communications

WX ASOS at MCI (2.2 nm NW): PHONE 816-329-2808
WX ASOS at MKC (10 nm S): 120.75 (816-329-2843)
WX AWOS-3T at GPH (17 nm E): 120.275 (816-407-3399)

Nearby radio navigation aids

VOR radial/distance  VOR name  Freq  Var
MCIr090/3.1KANSAS CITY VORTAC113.2505E
ANXr287/27.6NAPOLEON VORTAC114.0007E

 
NDB name  Hdg/Dist  Freq  Var  ID
AMAZON159/37.823304EAZN .- --.. -.

Heliport Services

Runway Information

Helipad H1

Dimensions: 40 x 40 ft. / 12 x 12 m
Surface: concrete
Traffic pattern: leftleft

Heliport Ownership and Management from official FAA records

Ownership: Privately-owned
Owner: EXECUTIVE HILLS NORTH INC.
10220 N. EXEC. HILLS BLVD.
KANSAS CITY, MO 64153
Phone 816-891-8448

Additional Remarks

FOR CD CTC KANSAS CITY APCH AT 816-329-2710.

Instrument Procedures

There are no published instrument procedures at 72MU.

Some nearby airports with instrument procedures:

KMCI - Kansas City International Airport (2 nm NW)
KMKC - Charles B Wheeler Downtown Airport (10 nm S)
KFLV - Sherman Army Airfield (12 nm NW)
KGPH - Midwest National Air Center Airport (17 nm E)
3EX - Excelsior Springs Memorial Airport (22 nm E)
 
Loc | Ops | Rwys | IFR | FBO | Links
Com | Nav | Svcs | Stats | Notes
Area around 72MU (Executive Hills Polo Club Heliport)
 
Road maps at: MapQuest Bing Google
 
Aerial photo
No photo
 
Sectional chart

 
Airport distance calculator
Flying to Executive Hills Polo Club Heliport? Find the distance to fly.

From to 72MU

Sunrise and sunset
Times for 04-Feb-2023
 Local
(UTC-6)
 Zulu
(UTC)
Morning civil twilight06:5612:56
Sunrise07:2413:24
Sunset17:4123:41
Evening civil twilight18:1000:10

Current date and time
Zulu (UTC)  04-Feb-2023 22:37:00
Local (UTC-6)  04-Feb-2023 16:37:00
 
METAR
KMCI 
3nm W 
042153Z 21015G23KT 10SM OVC200 12/00 A2993 RMK AO2 PK WND 21028/2118 SLP138 T01170000
KMKC 
10nm S 
042154Z 20015G22KT 10SM CLR 12/00 A2995 RMK AO2 PK WND 20027/2123 SLP142 T01220000
KGPH 
17nm E 
042215Z AUTO 20010G17KT 10SM CLR 11/M01 A2995 RMK AO2
TAF
KMCI 
3nm W 
041720Z 0418/0518 21019G30KT P6SM BKN250 FM050000 23012KT P6SM FEW200
KMKC 
10nm S 
041720Z 0418/0518 21019G30KT P6SM BKN250 FM050000 23012KT P6SM FEW200
NOTAMs
Click for the latest NOTAMs
NOTAMs are issued by the DoD/FAA and will open in a separate window not controlled by AirNav.

 

 
 

Would you like to see your business listed on this page?

 If your business provides an interesting product or service to pilots, flight crews, aircraft, or users of the Executive Hills Polo Club Heliport, you should consider listing it here.  To start the listing process, click on the button below
 
Add a business
 

Other Pages about Executive Hills Polo Club Heliport

Update a link
 
Copyright © AirNav, LLC. All rights reserved. Privacy Policy  Contact